Preview of NWS' New Version of Forecast
This preview is not operational and should not be used for support decisions.

Regional Weather Roundup (RWR)

Issued by National Weather Service (NWS)

                            
000
ASCA42 TJSJ 221910
RWRPR 
PUERTO RICO/U.S. VIRGIN ISLANDS HOURLY WEATHER ROUNDUP
NATIONAL WEATHER SERVICE SAN JUAN PR
300 PM AST MON JUL 22 2019

PRZ001>002-007>008-010-222000-
PUERTO RICO
  
CITY           SKY/WX    TMP DP  RH WIND       PRES   REMARKS
SAN JUAN LMM   MOSUNNY   88  73  62 NE20      29.98F HX  96           
AGUADILLA      PTSUNNY   81  75  83 E10       30.02F                  
CEIBA          SUNNY     90  73  58 E14       30.01F HX  98           
$$

VIZ001>002-222000-
U.S. VIRGIN ISLANDS
  
CITY           SKY/WX    TMP DP  RH WIND       PRES   REMARKS
CHARLOTTE AMA  MOSUNNY   88  73  62 SE13      30.00F HX  96           
CHRISTIANSTED  MOSUNNY   88  72  58 SE14G22   30.01F HX  94           
$$

HOURLY WEATHER ROUNDUP FOR THE NEWS MEDIA
  
CITY           SKY/WX    TMP DP  RH WIND       PRES   REMARKS
ORLANDO        PTSUNNY   92  68  45 VRB5      30.01F HX  96           
NEW YORK       FAIR      85  76  74 SE14      29.77F HX  94           
NEWARK         FAIR      88  72  58 SE12      29.73F HX  94           
CHICAGO        FAIR      73  46  38 NE20G29   30.07S                  
HARTFORD       LGT RAIN  79  66  64 NE14      29.83F                  
BOSTON         CLOUDY    74  65  73 E13       29.87S                  
DALLAS         PTSUNNY   89  72  56 NW10      30.00F HX  96           
PHILADELPHIA   FAIR      93  72  50 SW12G22   29.74F HX 101           
LOS ANGELES    PTSUNNY   74  62  66 W7        30.00S                  
WASHINGTON DC  TSTM      82  72  71 SW5       29.78F